Location: Champignolles
(47.0543°N, 4.5663°E)
Time: 22:36:47
(UTC+00:00)

Envisat - Pass Details

Date: 11 March 2021
Orbit: 764 x 766 km, 98.1° (Epoch: 12 April)

Event Time Altitude Azimuth Distance (km) Brightness Sun altitude
Rises 05:00:24 0° 18° (NNE) 3,244 6.6 -11.4°
Reaches altitude 10° 05:02:48 10° 24° (NNE) 2,312 5.9 -11.0°
Maximum altitude 05:07:45 50° 99° (E) 975 4.1 -10.1°
Drops below altitude 10° 05:12:39 10° 175° (S) 2,294 5.5 -9.3°
Sets 05:15:01 0° 180° (S) 3,216 6.2 -8.9°
